[[{"header":{"parameterUnit":"m.s-1","parameterCategory":1,"la1":30.2991,"la2":30.254,"lo1":-89.0895,"lo2":-89.0444,"dy":0.0017,"dx":0.0017,"nx":28,"ny":28,"refTime":"2024-03-08T09:00:00:Z","depth":0,"parameterNumber":2,"parameterNumberName":"U-component_of_WINDS"},"data":[0,0,0,0,0,0,0,0,0,0,0,0,0,0,0,0,0,0,0,0,0,0,0,0,0,0,0,0,0,0,0,0,0,0,0,0,0,0,0,0,0,0,0,0,0,0,0,0,0,0,0,0,0,0,0,0,0,0,-3.7853,-3.7852,0,-3.7778,-3.7777,-3.7776,-3.7737,-3.7737,-3.7737,-3.7737,-3.7662,-3.766,-3.7658,0,0,0,0,0,0,0,0,0,0,0,0,0,-3.7963,-3.7961,-3.7853,-3.7852,-3.7851,-3.7778,-3.7777,-3.7776,-3.7737,-3.7737,-3.7737,-3.7737,-3.7663,-3.766,-3.7658,0,0,0,0,0,0,0,0,0,0,0,0,0,-3.7904,-3.7961,-3.7854,-3.7823,-3.782,-3.7778,-3.7777,-3.7775,-3.7737,-3.7737,-3.7737,-3.7737,-3.7663,-3.766,-3.7658,-3.764,0,0,-3.7648,-3.7647,0,0,0,0,0,0,0,0,-3.7908,-3.79,-3.7829,-3.7825,-3.7821,-3.7767,-3.7788,-3.773,-3.7737,-3.7769,-3.7737,-3.7737,-3.7697,-3.7691,-3.7677,-3.7637,-3.7633,-3.7648,-3.7646,-3.7645,-3.7644,0,0,0,0,0,0,0,-3.7912,-3.7903,-3.7823,-3.7828,-3.7823,-3.7813,-3.7805,-3.7777,-3.7734,-3.7766,-3.7763,-3.7755,-3.7695,-3.768,-3.7675,-3.7632,-3.7648,-3.7646,-3.7644,-3.7643,-3.7568,-3.7568,0,0,0,0,0,0,-3.7921,-3.7907,-3.7826,-3.7821,-3.7865,-3.7811,-3.7802,-3.7785,-3.7734,-3.7727,-3.7755,-3.7753,-3.7685,-3.7679,-3.7672,-3.7645,-3.7645,-3.7642,-3.7641,-3.7569,-3.7568,-3.7568,0,0,0,0,0,0,-3.7923,-3.7914,-3.7829,-3.7863,-3.7851,-3.7809,-3.779,-3.7783,-3.7768,-3.7726,-3.7718,-3.7747,-3.7685,-3.7677,-3.7647,-3.7642,-3.7641,-3.7638,-3.7569,-3.7569,-3.7568,-3.7593,0,0,0,0,0,0,-3.7926,-3.7915,-3.7909,-3.7863,-3.785,-3.7805,-3.779,-3.7782,-3.7763,-3.776,-3.7717,-3.771,-3.7684,-3.7652,-3.7644,-3.7638,-3.7636,-3.7569,-3.7569,-3.7568,-3.7592,-3.7594,-3.7595,0,0,0,0,0,-3.7931,-3.792,-3.7909,-3.7899,-3.7841,-3.7805,-3.7798,-3.7768,-3.7763,-3.7755,-3.7727,-3.7711,-3.7644,-3.7649,-3.764,-3.7633,-3.7569,-3.7569,-3.7568,-3.7592,-3.7593,-3.7595,0,0,0,0,0,0,-3.7968,-3.7914,-3.79,-3.7875,-3.7845,-3.7799,-3.7789,-3.7771,-3.7743,-3.7741,-3.7706,-3.7697,-3.767,-3.7649,-3.7655,-3.7611,-3.7605,-3.7603,-3.7626,-3.7627,-3.7628,-3.7633,-3.7634,0,0,0,0,0,-3.7973,-3.7949,-3.7903,-3.7885,-3.787,-3.7832,-3.7816,-3.7795,-3.7762,-3.775,-3.772,-3.7689,-3.766,-3.7643,-3.7615,-3.7589,-3.7577,-3.758,-3.7581,-3.7582,-3.758,-3.7561,-3.756,-3.7567,-3.7567,-3.7567,0,0,-3.7984,-3.7951,-3.7938,-3.7891,-3.7865,-3.7839,-3.7822,-3.7797,-3.7776,-3.7746,-3.7715,-3.7692,-3.7655,-3.7626,-3.7612,-3.7608,-3.7575,-3.7581,-3.7583,-3.758,-3.756,-3.756,-3.7559,-3.7566,-3.7566,-3.7567,0,0,-3.7989,-3.7964,-3.7943,-3.7917,-3.7877,-3.7851,-3.7846,-3.7802,-3.7784,-3.7753,-3.7728,-3.7704,-3.7657,-3.763,-3.761,-3.7601,-3.7583,-3.7593,-3.7598,-3.758,-3.7579,-3.7578,-3.7572,-3.757,-3.7591,-3.7591,-3.7591,0,-3.8008,-3.7968,-3.7936,-3.791,-3.7889,-3.7858,-3.7836,-3.7812,-3.7766,-3.7751,-3.7747,-3.7683,-3.7657,-3.7619,-3.7616,-3.7603,-3.7594,-3.7597,-3.7582,-3.7581,-3.758,-3.7573,-3.7571,-3.7592,-3.7592,-3.7592,-3.7592,0,-3.7991,-3.7963,-3.7952,-3.7905,-3.7883,-3.786,-3.7822,-3.7803,-3.7783,-3.7757,-3.7723,-3.769,-3.7652,-3.7642,-3.7624,-3.76,-3.7598,-3.7589,-3.7581,-3.7581,-3.7573,-3.7571,-3.7594,-3.7594,-3.7593,-3.7593,0,0,-3.802,-3.7952,-3.7948,-3.7925,-3.7877,-3.7854,-3.7828,-3.779,-3.7773,-3.7741,-3.7716,-3.7675,-3.7664,-3.7641,-3.762,-3.7604,-3.7593,-3.7595,-3.7593,-3.7593,-3.7561,-3.7568,-3.7565,-3.7582,-3.7581,-3.7581,-3.7563,0,-3.8016,-3.7968,-3.7936,-3.7899,-3.7871,-3.784,-3.7816,-3.7784,-3.7758,-3.773,-3.7702,-3.7671,-3.7661,-3.7646,-3.7629,-3.7599,-3.7586,-3.76,-3.7557,-3.7556,-3.7565,-3.7562,-3.757,-3.7555,-3.7561,-3.756,-3.756,0,-3.8007,-3.7973,-3.7933,-3.7884,-3.7871,-3.7851,-3.781,-3.7785,-3.7746,-3.7727,-3.77,-3.7677,-3.7646,-3.7641,-3.7597,-3.7606,-3.7587,-3.7569,-3.7568,-3.7561,-3.7557,-3.7554,-3.755,-3.7547,-3.7556,-3.7556,-3.7557,0,-3.8028,-3.7973,-3.794,-3.7922,-3.7864,-3.785,-3.7825,-3.7786,-3.7764,-3.7729,-3.7713,-3.7676,-3.7655,-3.7625,-3.7592,-3.7592,-3.7549,-3.7543,-3.7532,-3.7532,-3.7523,-3.7524,-3.7514,-3.7515,-3.7515,-3.7515,-3.7515,0,-3.8027,-3.8003,-3.7948,-3.7929,-3.79,-3.7862,-3.7834,-3.7807,-3.7772,-3.7745,-3.7716,-3.7691,-3.7649,-3.7619,-3.7592,-3.7557,-3.7549,-3.7532,-3.7525,-3.7533,-3.7535,-3.7519,-3.7519,-3.7514,-3.7514,-3.7514,-3.7514,0,-3.8045,-3.8009,-3.797,-3.7918,-3.7904,-3.7885,-3.7839,-3.7817,-3.7789,-3.7754,-3.7744,-3.7699,-3.7661,-3.7625,-3.7575,-3.7557,-3.7521,-3.7513,-3.7534,-3.753,-3.7519,-3.752,-3.7497,-3.7491,-3.7498,-3.7498,-3.7498,0,-3.8046,-3.8026,-3.797,-3.7949,-3.7925,-3.7893,-3.7868,-3.783,-3.7805,-3.7757,-3.774,-3.77,-3.7665,-3.7606,-3.7568,-3.7529,-3.7518,-3.7513,-3.7512,-3.752,-3.7515,-3.7515,-3.7512,-3.7514,-3.7514,-3.7514,-3.7514,0,-3.805,-3.8032,-3.7998,-3.7956,-3.7927,-3.7893,-3.7858,-3.7843,-3.7797,-3.7771,-3.773,-3.7703,-3.765,-3.7609,-3.7565,-3.7539,-3.7518,-3.7514,-3.7509,-3.7517,-3.7528,-3.7519,-3.7533,-3.7515,-3.7515,-3.7515,-3.7515,-3.7515,-3.8058,-3.8037,-3.7993,-3.7955,-3.7924,-3.7891,-3.7866,-3.7833,-3.7799,-3.7751,-3.7731,-3.7689,-3.7647,-3.7584,-3.7558,-3.7524,-3.7519,-3.7513,-3.751,-3.7509,-3.7509,-3.7535,-3.7516,-3.7516,-3.7516,-3.7516,-3.7516,0,-3.8058,-3.8027,-3.7992,-3.7942,-3.7911,-3.7893,-3.7852,-3.7827,-3.7791,-3.7753,-3.7718,-3.767,-3.7629,-3.7587,-3.7543,-3.7524,-3.7513,-3.7514,-3.7514,-3.7507,-3.7517,-3.7525,-3.7523,-3.7523,-3.7523,-3.7523,-3.7523,-3.7523,-3.8054,-3.8017,-3.7993,-3.7938,-3.7907,-3.7866,-3.7843,-3.7811,-3.778,-3.7727,-3.7692,-3.7664,-3.7623,-3.7575,-3.7536,-3.7525,-3.7509,-3.7512,-3.7497,-3.7507,-3.7507,-3.7507,-3.7513,-3.7509,-3.7509,-3.749,-3.7489,-3.7489]},{"header":{"parameterUnit":"m.s-1","parameterCategory":1,"la1":30.2991,"la2":30.254,"lo1":-89.0895,"lo2":-89.0444,"dy":0.0017,"dx":0.0017,"nx":28,"ny":28,"refTime":"2024-03-08T09:00:00:Z","depth":0,"parameterNumber":3,"parameterNumberName":"V-component_of_WINDS"},"data":[0,0,0,0,0,0,0,0,0,0,0,0,0,0,0,0,0,0,0,0,0,0,0,0,0,0,0,0,0,0,0,0,0,0,0,0,0,0,0,0,0,0,0,0,0,0,0,0,0,0,0,0,0,0,0,0,0,0,4.242,4.242,0,4.2439,4.244,4.244,4.2389,4.2387,4.2385,4.2384,4.2401,4.2403,4.2405,0,0,0,0,0,0,0,0,0,0,0,0,0,4.234,4.2342,4.242,4.242,4.242,4.2439,4.244,4.244,4.2389,4.2387,4.2385,4.2383,4.24,4.2403,4.2405,0,0,0,0,0,0,0,0,0,0,0,0,0,4.2369,4.2342,4.242,4.2397,4.2395,4.2439,4.244,4.244,4.2389,4.2387,4.2384,4.2382,4.24,4.2403,4.2405,4.2471,0,0,4.2414,4.2416,0,0,0,0,0,0,0,0,4.2367,4.2372,4.24,4.2399,4.2397,4.2409,4.2418,4.245,4.239,4.2391,4.2384,4.2381,4.2406,4.2408,4.2417,4.2472,4.2473,4.2415,4.2416,4.2418,4.2418,0,0,0,0,0,0,0,4.2365,4.2371,4.2427,4.2401,4.2399,4.2387,4.2388,4.2424,4.2412,4.2391,4.2387,4.2391,4.2404,4.2414,4.2417,4.2473,4.2414,4.2417,4.2419,4.242,4.259,4.2592,0,0,0,0,0,0,4.2366,4.2369,4.2427,4.2428,4.2376,4.239,4.2392,4.2408,4.2411,4.2409,4.2393,4.2388,4.241,4.2413,4.2417,4.2497,4.2418,4.242,4.2422,4.2587,4.259,4.2593,0,0,0,0,0,0,4.2365,4.2372,4.2426,4.2398,4.2404,4.2394,4.2412,4.2409,4.2419,4.2412,4.241,4.2405,4.2408,4.2413,4.246,4.2497,4.2422,4.2424,4.2584,4.2588,4.2592,4.2657,0,0,0,0,0,0,4.2363,4.2372,4.2395,4.2399,4.2406,4.2468,4.2415,4.2411,4.2424,4.2419,4.2423,4.2421,4.2407,4.2456,4.2463,4.25,4.2427,4.258,4.2586,4.2591,4.2651,4.2663,4.2673,0,0,0,0,0,4.236,4.2411,4.2397,4.2404,4.2435,4.247,4.2474,4.2457,4.2428,4.2452,4.245,4.2421,4.2493,4.2461,4.2468,4.2507,4.2578,4.2584,4.259,4.2647,4.2661,4.2672,0,0,0,0,0,0,4.2409,4.241,4.2395,4.2448,4.246,4.2461,4.2491,4.2471,4.249,4.2483,4.2461,4.2463,4.2515,4.2516,4.248,4.2574,4.253,4.2538,4.2571,4.2584,4.2594,4.2592,4.2429,0,0,0,0,0,4.2427,4.2455,4.2455,4.2502,4.2509,4.25,4.2514,4.2501,4.2511,4.2515,4.2515,4.2526,4.2552,4.2568,4.259,4.2653,4.2654,4.2684,4.2694,4.2703,4.2709,4.2747,4.2761,4.2614,4.2614,4.2614,0,0,4.2462,4.2466,4.2484,4.2512,4.2519,4.255,4.2503,4.2536,4.2559,4.2519,4.2564,4.2566,4.2577,4.2633,4.2658,4.2635,4.2752,4.2711,4.2718,4.272,4.2755,4.2769,4.2781,4.2618,4.2617,4.2617,0,0,4.2542,4.2547,4.2589,4.26,4.2613,4.2607,4.2618,4.2624,4.2624,4.267,4.2643,4.2671,4.2713,4.2724,4.2735,4.2829,4.2805,4.2837,4.2891,4.2928,4.2939,4.295,4.2985,4.2998,4.2844,4.2844,4.2844,0,4.2583,4.2628,4.2613,4.265,4.2665,4.2634,4.2678,4.2688,4.2708,4.2719,4.2695,4.2753,4.2758,4.2818,4.2842,4.2851,4.2864,4.2834,4.2939,4.2949,4.2958,4.2992,4.3005,4.2848,4.2847,4.2847,4.2847,0,4.268,4.2712,4.2745,4.2768,4.2787,4.2826,4.282,4.284,4.2829,4.2827,4.2876,4.2883,4.2909,4.2923,4.2909,4.2983,4.2969,4.2943,4.2898,4.2977,4.3008,4.302,4.2854,4.2852,4.2851,4.285,0,0,4.2784,4.2805,4.2817,4.2829,4.2845,4.287,4.2912,4.294,4.2959,4.2976,4.3011,4.3053,4.303,4.3043,4.3032,4.3064,4.3142,4.3034,4.3034,4.3055,4.3227,4.3246,4.3261,4.3128,4.313,4.3132,4.3227,0,4.2864,4.2935,4.2927,4.2995,4.3027,4.3003,4.304,4.3055,4.3056,4.3085,4.3086,4.3117,4.3084,4.3092,4.3124,4.3126,4.3176,4.3119,4.3161,4.3162,4.3157,4.3277,4.3296,4.3384,4.3239,4.3241,4.3242,0,4.2964,4.2989,4.3061,4.3079,4.3092,4.3124,4.3153,4.318,4.3198,4.3198,4.3217,4.3202,4.3246,4.3204,4.3265,4.3227,4.3245,4.3249,4.3252,4.3254,4.3205,4.3282,4.3411,4.3425,4.3261,4.3259,4.3258,0,4.3035,4.3086,4.3137,4.3148,4.3169,4.3194,4.3204,4.322,4.324,4.3265,4.3278,4.3308,4.3324,4.3348,4.3343,4.3312,4.3407,4.3363,4.3408,4.3409,4.3426,4.3425,4.3561,4.344,4.344,4.3439,4.3439,0,4.3123,4.3169,4.317,4.3201,4.3253,4.3245,4.3297,4.3304,4.3321,4.3355,4.3336,4.3368,4.336,4.3393,4.339,4.3443,4.345,4.3452,4.345,4.3453,4.3453,4.3462,4.3455,4.3443,4.3442,4.3442,4.3441,0,4.3208,4.321,4.3265,4.3283,4.329,4.3327,4.3343,4.3374,4.3378,4.3421,4.3431,4.3436,4.3474,4.3473,4.3515,4.3513,4.358,4.3571,4.3574,4.3571,4.3617,4.3613,4.3762,4.3782,4.365,4.3651,4.3652,0,4.3263,4.3298,4.3323,4.3345,4.3358,4.3394,4.3415,4.3412,4.3435,4.3464,4.3492,4.353,4.3559,4.3622,4.363,4.3664,4.3656,4.3706,4.366,4.3664,4.3657,4.3655,4.366,4.3714,4.3715,4.3717,4.3718,0,4.3362,4.3363,4.3395,4.343,4.3457,4.3484,4.3508,4.3528,4.3528,4.3556,4.3596,4.362,4.3667,4.3705,4.374,4.3751,4.3735,4.3733,4.3746,4.3747,4.3748,4.3749,4.3598,4.3728,4.3727,4.3727,4.3726,4.3726,4.3433,4.3465,4.349,4.3528,4.3547,4.3573,4.3604,4.3615,4.3649,4.3688,4.3685,4.3731,4.3755,4.38,4.3816,4.3853,4.3835,4.3852,4.3857,4.3861,4.3867,4.3745,4.3859,4.3859,4.3859,4.3858,4.3858,0,4.3531,4.3548,4.3583,4.3621,4.3652,4.3639,4.3668,4.3695,4.3736,4.3761,4.3793,4.3842,4.3882,4.3896,4.3935,4.3962,4.3957,4.3973,4.3969,4.3973,4.388,4.3865,4.3977,4.3977,4.3977,4.3977,4.3977,4.3977,4.3585,4.364,4.3647,4.3713,4.3729,4.3776,4.3794,4.3819,4.3839,4.3896,4.393,4.3941,4.3963,4.4004,4.4041,4.4045,4.406,4.4079,4.4079,4.3991,4.3979,4.3967,4.3954,4.4082,4.4082,4.417,4.417,4.4171]}]]